KI4AMD-13 Weather Reports


time (UTC)temp
C
wind
direction
speed
KPH
gust
KPH
rain 1hr
cm
rain 24hr
cm
rain mn
cm
humidity
%
barometer
mb
20260504081608 -17 0.0 0.0 0.00 0.00 0.00 1017.1
20260504070105 -17 0.0 0.0 0.00 0.00 0.00 1017.4
20260504044604 -17 0 0.0 0.0 0.00 0.00 0.00 1017.6
20260504043100 -17 0 0.0 0.0 0.00 0.00 0.00 1017.4
20260504041558 -17 0 0.0 0.0 0.00 0.00 0.00 1017.4
20260504034614 -17 0 0.0 0.0 0.00 0.00 0.00 1017.3
20260504033058 -17 0 0.0 0.0 0.00 0.00 0.00 1017.2
20260504031600 -17 0 0.0 1.6 0.00 0.00 0.00 1017.2
20260504030058 -17 0 0.0 0.0 0.00 0.00 0.00 1017.5
20260504024559 -17 0 0.0 0.0 0.00 0.00 0.00 1017.3
20260504023058 -17 0 0.0 0.0 0.00 0.00 0.00 1016.9
20260504021559 -17 0 0.0 0.0 0.00 0.00 0.00 1017.0
20260504020059 -17 0 0.0 0.0 0.00 0.00 0.00 1017.0
20260504014618 -17 0 0.0 0.0 0.00 0.00 0.00 1017.1
20260504013104 -17 0 0.0 0.0 0.00 0.00 0.00 1016.9
20260504011605 -17 0 0.0 0.0 0.00 0.00 0.00 1016.9
20260504010100 -17 0 0.0 0.0 0.00 0.00 0.00 1016.6
20260504004558 -17 0 0.0 0.0 0.00 0.00 0.00 1016.4
20260504003100 -17 0 0.0 0.0 0.00 0.00 0.00 1016.3
20260504001616 -17 0 0.0 0.0 0.00 0.00 0.00 1016.3
20260503234600 -17 240 0.0 3.2 0.00 0.00 0.00 1016.2
20260503233058 -17 257 1.6 3.2 0.00 0.00 0.00 1016.4
20260503231558 -17 257 1.6 4.8 0.00 0.00 0.00 1016.4
20260503230100 -17 259 1.6 6.4 0.00 0.00 0.00 1016.4
20260503224557 -17 257 1.6 4.8 0.00 0.00 0.00 1016.5
20260503223056 -17 257 3.2 6.4 0.00 0.00 0.00 1016.6
20260503221557 -17 255 1.6 6.4 0.00 0.00 0.00 1016.6
20260503220104 -17 260 3.2 6.4 0.00 0.00 0.00 1016.8
20260503214602 -17 250 4.8 6.4 0.00 0.00 0.00 1016.7
20260503213110 -17 257 1.6 4.8 0.00 0.00 0.00 1016.9
20260503211557 -17 257 3.2 6.4 0.00 0.00 0.00 1017.0
20260503210105 -17 249 3.2 6.4 0.00 0.00 0.00 1017.1
20260503204600 -17 254 1.6 8.0 0.00 0.00 0.00 1017.2
20260503203103 -17 256 1.6 6.4 0.00 0.00 0.00 1017.5
20260503201559 -17 259 3.2 6.4 0.00 0.00 0.00 1017.6
20260503200104 -17 242 3.2 4.8 0.00 0.00 0.00 1017.9
20260503194557 -17 236 3.2 9.7 0.00 0.00 0.00 1018.1
20260503193110 -17 249 1.6 11.3 0.00 0.00 0.00 1018.2
20260503191608 -17 210 0.0 6.4 0.00 0.00 0.00 1018.4
20260503190059 -17 0 0.0 4.8 0.00 0.00 0.00 1018.5
20260503184611 -17 247 1.6 6.4 0.00 0.00 0.00 1018.8
20260503183110 -17 256 1.6 6.4 0.00 0.00 0.00 1018.9
20260503181609 -17 238 1.6 6.4 0.00 0.00 0.00 1019.1
20260503180059 -17 285 1.6 8.0 0.00 0.00 0.00 1019.2
20260503174556 -17 260 3.2 6.4 0.00 0.00 0.00 1019.4
20260503173103 -17 354 1.6 6.4 0.00 0.00 0.00 1019.7
20260503171558 -17 274 1.6 8.0 0.00 0.00 0.00 1019.7
20260503160104 -17 225 3.2 6.4 0.00 0.00 0.00 1020.5